| time (UTC) | temp F | wind direction | speed knots | gust knots | rain 1hr in | rain 24hr in | rain mn in | humidity % | barometer mb |
| 20260503214547 | 58 | 267 | 3.5 | 12.2 | 0.00 | 0.00 | 0.00 | 33 | 1010.9 |
| 20260503213043 | 58 | 235 | 3.5 | 7.8 | 0.00 | 0.00 | 0.00 | 33 | 1010.7 |
| 20260503211543 | 58 | 238 | 2.6 | 8.7 | 0.00 | 0.00 | 0.00 | 32 | 1010.8 |
| 20260503210042 | 58 | 211 | 5.2 | 10.4 | 0.00 | 0.00 | 0.00 | 32 | 1010.9 |
| 20260503204540 | 59 | 222 | 5.2 | 12.2 | 0.00 | 0.00 | 0.00 | 30 | 1010.8 |
| 20260503203042 | 59 | 238 | 6.1 | 16.5 | 0.00 | 0.00 | 0.00 | 31 | 1011.0 |
| 20260503201533 | 58 | 206 | 9.6 | 18.2 | 0.00 | 0.00 | 0.00 | 31 | 1011.1 |
| 20260503200031 | 58 | 251 | 6.1 | 13.0 | 0.00 | 0.00 | 0.00 | 31 | 1011.3 |
| 20260503194533 | 58 | 245 | 7.8 | 13.9 | 0.00 | 0.00 | 0.00 | 33 | 1011.3 |
| 20260503193027 | 57 | 277 | 0.9 | 11.3 | 0.00 | 0.00 | 0.00 | 32 | 1011.7 |
| 20260503191534 | 57 | 242 | 6.1 | 13.0 | 0.00 | 0.00 | 0.00 | 30 | 1012.0 |
| 20260503190024 | 57 | 217 | 2.6 | 13.0 | 0.00 | 0.00 | 0.00 | 34 | 1012.0 |
| 20260503184522 | 57 | 229 | 7.0 | 13.9 | 0.00 | 0.00 | 0.00 | 32 | 1012.1 |
| 20260503183020 | 57 | 244 | 1.7 | 16.5 | 0.00 | 0.00 | 0.00 | 33 | 1012.1 |
| 20260503181519 | 57 | 228 | 2.6 | 8.7 | 0.00 | 0.00 | 0.00 | 35 | 1012.4 |
| 20260503180024 | 56 | 236 | 2.6 | 9.6 | 0.00 | 0.00 | 0.00 | 37 | 1012.4 |
| 20260503174513 | 56 | 275 | 2.6 | 15.6 | 0.00 | 0.00 | 0.00 | 32 | 1012.6 |
| 20260503173012 | 55 | 243 | 1.7 | 12.2 | 0.00 | 0.00 | 0.00 | 34 | 1012.7 |
| 20260503171510 | 56 | 267 | 1.7 | 13.0 | 0.00 | 0.00 | 0.00 | 34 | 1012.8 |
| 20260503160115 | 53 | 268 | 3.5 | 12.2 | 0.00 | 0.00 | 0.00 | 38 | 1013.6 |
| 20260503081544 | 39 | 219 | 1.7 | 5.2 | 0.00 | 0.00 | 0.00 | 62 | 1013.3 |
| 20260503071541 | 38 | 316 | 1.7 | 4.3 | 0.00 | 0.00 | 0.00 | 62 | 1013.1 |
| 20260503054534 | 40 | 259 | 1.7 | 5.2 | 0.00 | 0.03 | 0.00 | 59 | 1012.9 |
| 20260503053024 | 40 | 229 | 1.7 | 4.3 | 0.00 | 0.03 | 0.00 | 58 | 1013.0 |
| 20260503051516 | 41 | 234 | 0.0 | 3.5 | 0.00 | 0.03 | 0.00 | 55 | 1013.1 |
| 20260503050015 | 41 | 255 | 0.0 | 5.2 | 0.00 | 0.03 | 0.00 | 56 | 1013.2 |
| 20260503044515 | 41 | 259 | 0.9 | 4.3 | 0.00 | 0.10 | 0.00 | 55 | 1013.1 |
| 20260503043030 | 42 | 255 | 0.9 | 3.5 | 0.00 | 0.10 | 0.00 | 55 | 1013.1 |
| 20260503041510 | 42 | 285 | 2.6 | 6.1 | 0.00 | 0.10 | 0.00 | 54 | 1013.1 |
| 20260503040006 | 42 | 250 | 0.9 | 4.3 | 0.00 | 0.13 | 0.10 | 55 | 1013.1 |
| 20260503034505 | 43 | 257 | 0.9 | 4.3 | 0.00 | 0.13 | 0.10 | 55 | 1013.2 |
| 20260503033015 | 43 | 258 | 1.7 | 6.1 | 0.00 | 0.13 | 0.10 | 55 | 1013.3 |
| 20260503031504 | 43 | 250 | 0.9 | 6.1 | 0.00 | 0.13 | 0.10 | 54 | 1013.4 |
| 20260503030003 | 43 | 248 | 1.7 | 5.2 | 0.00 | 0.17 | 0.10 | 56 | 1013.4 |
| 20260503024509 | 43 | 238 | 1.7 | 4.3 | 0.00 | 0.17 | 0.10 | 58 | 1013.4 |
| 20260503023002 | 43 | 254 | 2.6 | 4.3 | 0.00 | 0.17 | 0.10 | 58 | 1013.4 |
| 20260503021505 | 44 | 254 | 1.7 | 4.3 | 0.00 | 0.17 | 0.10 | 59 | 1013.4 |
| 20260503020002 | 43 | 266 | 2.6 | 7.0 | 0.00 | 0.17 | 0.10 | 59 | 1013.2 |
| 20260503014501 | 43 | 250 | 0.9 | 4.3 | 0.00 | 0.17 | 0.10 | 63 | 1013.1 |
| 20260503013100 | 43 | 276 | 0.9 | 2.6 | 0.00 | 0.17 | 0.10 | 65 | 1013.2 |
| 20260503011605 | 43 | 238 | 2.6 | 8.7 | 0.00 | 0.17 | 0.10 | 63 | 1013.1 |
| 20260503010105 | 43 | 224 | 0.0 | 3.5 | 0.00 | 0.17 | 0.10 | 66 | 1012.9 |
| 20260503004609 | 43 | 217 | 0.9 | 2.6 | 0.00 | 0.21 | 0.10 | 66 | 1012.8 |
| 20260503004501 | 43 | 210 | 0.0 | 2.6 | 0.00 | 0.21 | 0.10 | 67 | 1012.8 |
| 20260503003111 | 44 | 217 | 0.0 | 3.5 | 0.00 | 0.21 | 0.10 | 66 | 1012.7 |
| 20260503001621 | 44 | 221 | 0.0 | 3.5 | 0.00 | 0.21 | 0.10 | 65 | 1012.6 |
| 20260503000057 | 44 | 215 | 0.9 | 6.1 | 0.00 | 0.21 | 0.10 | 64 | 1012.5 |
| 20260502234557 | 44 | 234 | 0.9 | 2.6 | 0.00 | 0.22 | 0.10 | 66 | 1012.4 |
| 20260502233056 | 44 | 228 | 0.0 | 1.7 | 0.00 | 0.22 | 0.10 | 67 | 1012.4 |
| 20260502231555 | 44 | 238 | 0.9 | 4.3 | 0.00 | 0.22 | 0.10 | 68 | 1012.3 |
| 20260502230056 | 44 | 236 | 0.0 | 2.6 | 0.00 | 0.22 | 0.10 | 69 | 1012.3 |
| 20260502224555 | 45 | 242 | 1.7 | 7.0 | 0.00 | 0.22 | 0.10 | 66 | 1012.4 |
| 20260502223054 | 46 | 252 | 0.0 | 2.6 | 0.00 | 0.22 | 0.10 | 62 | 1012.2 |
| 20260502221554 | 46 | 219 | 0.9 | 3.5 | 0.00 | 0.22 | 0.10 | 60 | 1012.1 |
| 20260502220053 | 47 | 197 | 0.0 | 1.7 | 0.00 | 0.22 | 0.10 | 62 | 1012.2 |